Погода Березино

Хотите узнать прогноз погоды Березино? Тогда Вам сюда: Погода Березино

Поиск расширенной информации на нашем сайте:

Полезная информация:

Новости сайта



02.01.2020
Опубликован Долгосрочный прогноз погоды по городам России и ближнего зарубежья на январь 2020 года.
Карты: Прогноз на январь и февраль 2020 года, Сравнение прогнозируемой аномалии приземной температуры воздуха на январь 2020 года по разным моделям.




Погода Березино - сегодня

Время (UTC), дата Ветер
(°,м/с) 
Видим.   Явления Облачность Т
(°С)
Тd
(°С)
f(%) Тe
(°С)
Pmin
(гПа)
dP
(гПа)
Po
(мм)
O2
(г/м3)
Тmin Tmax R s Состояние
почвы
12 22.10.21 250 (З) 7-13{15}  35000 м    9/9 600 м 
[Sc diur, vesp]
+10.1 -0.5 48 +8  1004.4  1.5  740  287           
15 22.10.21 230 (ЮЗ) 3{13}  35000 м    10/10 600 м 
[Sc]
+8.9 -0.5 52 +8  1005.2  0.8  740  289           
18 22.10.21 220 (ЮЗ) 4{12}  35000 м    9/9 600 м 
[Sc]
+8.7 -0.7 52 +8  1005.2  -0.1  740  289    +10.1       
21 22.10.21 230 (ЮЗ) 5-11{14}  35000 м  слаб. ливневой дождь  10/8 600 м кучево-дожд., средняя 
[Cb calv|As op]
+7.5 +1.3 65 +6  1004.8  -0.5  740  290           
00 23.10.21 220 (ЮЗ) 6{11}  35000 м  в посл. час ливневой дождь  10/5 600 м кучево-дожд., средняя 
[Cb calv|As trans]
+7.6 +0.9 62 +6  1003.6  -1.2  739  289           
03 23.10.21 250 (З) 4-10{10}  35000 м  слаб. ливневой дождь  10/8 600 м кучево-дожд., средняя 
[Cb calv|As op]
+6.7 +2.6 75 +5  1004.3  0.7  739  290      0.1     
06 23.10.21 240 (ЮЗ) 3{10}  35000 м  {ливн. осадки}  9/9 600 м 
[Sc]
+5.9 +1.9 75 +5  1006.7  2.3  741  292  +5.2    0.1     
09 23.10.21 260 (З) 6-10{11}  35000 м  {ливн. осадки}  9/9 600 м 
[Sc diur, vesp]
+7.1 +1.9 69 +5  1009.2  2.6  743  291           
12 23.10.21 250 (З) 4{13}  35000 м  {ливн. осадки}  8/8 600 м кучево-дожд. 
[Cb calv]
+8.1 +0.2 57 +7  1010.7  1.5  744  291           
15 23.10.21 230 (ЮЗ) 2{11}  35000 м  {ливн. осадки}  3/1 600 м верхняя 
[Sc diur, vesp|Ci fib]
+6.7 +2.1 72 +7  1012.7  1.8  745  293           
18 23.10.21 230 (ЮЗ) 35000 м  {ливн. осадки}  9/9 600 м 
[Sc]
+5.6 +2.9 83 +5  1014.7  1.9  747  294    +8.1  0.0     
21 23.10.21 250 (З) 35000 м    8/8 600 м 
[Sc]
+5.1 +2.9 86 +5  1016.5  1.7  748  295           
00 24.10.21 290 (З) 35000 м    10/10 600 м 
[Sc]
+5.2 +1.1 75 +5  1018.5  750  296           
03 24.10.21 290 (З) 35000 м    10/0 средняя 
[As trans]
+3.9 +1.9 87 +3  1020.4  1.9  751  298           
06 24.10.21 300 (СЗ) 35000 м    9/8 300 м средняя 
[Sc diur, vesp|Ac cuf]
+3.9 +1.1 82 +3  1023.2  2.6  753  299  +3.4         
09 24.10.21 320 (СЗ) 35000 м    9/9 300 м 
[Sc]
+4.2 -1.3 67 +3  1025.9  2.7  755  300           
12 24.10.21 320 (СЗ) 35000 м  в посл. час крупа{ливн. осадки}  9/8 600 м кучево-дожд., средняя 
[Cb calv|Ac cuf]
+5 -2.2 60 +4  1027.9  757  300           
15 24.10.21 280 (З) 35000 м    9/0 средняя, верхняя 
[Ac trans|Cc]
+3.8 -3.1 61 +5  1029.3  1.3  758  301      0.0     
18 24.10.21 250 (З) 35000 м    8/0 средняя 
[Ac trans]
+2.3 -2.6 70 +3  1030.4  758  303    +5  0.0     
21 24.10.21 тихо ()   26000 м    1/0 верхняя 
[Ci fib]
-1.1 -2.3 92 -1  1031.6  759  307           
00 25.10.21 тихо ()   30000 м    ясно 
-2.4 -3 96 -2  1032.3  0.5  759  309           
03 25.10.21 190 (Ю) 35000 м    ясно 
-1.8 -2 99 -1  1032.7  0.4  760  308           
06 25.10.21 тихо ()   21000 м    4/0 верхняя 
[Cs]
-1.8 -2 99 -2  1032.9  0.2  760  308  -3         
09 25.10.21 190 (Ю) 35000 м    1/0 верхняя 
[Ci fib]
+6.4 +0.2 64 +6  1032.3  760  299           
12 25.10.21 210 (ЮЗ) 22000 м    ясно 
+8.4 -1.7 49 +7  1030.4  -1.7  759  297           
Время (UTC), дата Ветер
(°,м/с) 
Видим.   Явления Облачность Т
(°С)
Тd
(°С)
f(%) Тe
(°С)
Pmin
(гПа)
dP
(гПа)
Po
(мм)
O2
(г/м3)
Тmin Tmax R s Состояние
почвы

Для получения пояснительной информации подведите курсор к названию столбца.

ПОГОДА Березино - архив

Всё, что Вы хотите узнать о погоде Березино - удобно и подробно!

Выберите нужную дату (начиная с 1 января 2019* года) и нажмите кнопку "Найти".
Будут отображены архивные сводки погоды по пункту Березино, начиная с указанной даты.


Отображать данные в формате CSV (для использования в таблицах Excel)


Внимание! Наш архив погоды предназначен исключительно для личного некоммерческого использования в познавательных целях. Если Вам необходимы официальные справки о состоянии погоды (для производственных, юридических, коммерческих и т.п. целей), обращайтесь в органы Росгидромета.

*Примечание: данная дата относится к архиву по метеостанциям СССР (Россия, СНГ, Балтия).
Архив по метеостанциям Зарубежной Европы и Азии (кроме Китая) хранится 10 дней, по другим регионам земного шара (Китай, Африка, Америка, Австралия, Океания) - 1 день.

Березино - район местоположения метеостанции


Название, широта, долгота, высота метеостанции:
Березино 53.8°ш. 29°д. 154 м над ур. моря [Беларусь]

Дополнительная информация

В oтличие oт бoльшинства пoгoдных сайтoв мы публикуем пoдрoбную метеoинфoрмацию в детальнoм прoфессиoнальнoм фoрмате.

Характеристики температуры и влажнoсти вoздуха измеряются на высoте 2 м в тени вдали oт зданий и деревьев.
Скoрoсть ветра измеряется на высoте 10 м (на урoвне рoста челoвека скoрoсть ветра ниже в 1.5-2 раза). Если метеoстанция нахoдится в гoрoде или в лесу, тo скoрoсть ветра занижена на 2-4 м/с пo сравнению с oткрытым местoм. Скoрoсть ветра над акватoриями крупных рек и oзёр, а также на вершинах хoлмoв на 2-5 м/с выше, чем в oбычных услoвиях.
Атмoсфернoе давление в разных тoчках местнoсти мoжет значительнo oтличаться oт давления на метеoстанции, в зависимoсти oт услoвий рельефа (при пoдъёме на 10 м давление пoнижается примернo на 1 мм рт.ст.).